FW2316 Weather Reports


Display with metric or nautical units.
time (UTC)temp
F
wind
direction
speed
MPH
gust
MPH
rain 1hr
in
rain 24hr
in
rain mn
in
humidity
%
barometer
mb
20260506082011 55 257 1.0 4.0 0.00 0.00 0.00 90 1018.6
20260506081511 55 257 1.0 4.0 0.00 0.00 0.00 90 1018.6
20260506081010 55 257 2.0 4.0 0.00 0.00 0.00 90 1018.5
20260506080510 55 259 1.0 4.0 0.00 0.00 0.00 90 1018.5
20260506073510 55 287 1.0 2.0 0.00 0.00 0.00 91 1018.3
20260506072508 55 288 0.0 2.0 0.00 0.00 0.00 90 1018.2
20260506072007 55 288 0.0 2.0 0.00 0.00 0.00 90 1018.3
20260506071508 55 288 0.0 2.0 0.00 0.00 0.00 91 1018.3
20260506071007 55 288 0.0 3.0 0.00 0.00 0.00 91 1018.3
20260506070507 55 288 1.0 3.0 0.00 0.00 0.00 91 1018.2
20260506062503 54 288 0.0 0.0 0.00 0.00 0.00 93 1017.7
20260506062004 53 288 0.0 0.0 0.00 0.00 0.00 93 1017.6
20260506061502 53 288 0.0 0.0 0.00 0.00 0.00 92 1017.5
20260506061002 53 288 0.0 0.0 0.00 0.00 0.00 92 1017.5
20260506060502 53 288 0.0 1.0 0.00 0.00 0.00 92 1017.5
20260506051059 54 293 0.0 0.0 0.00 0.00 0.00 90 1017.4
20260506050559 55 293 0.0 0.0 0.00 0.00 0.00 90 1017.3
20260506045101 55 293 0.0 0.0 0.00 0.00 0.00 88 1017.3
20260506044612 56 293 0.0 0.0 0.00 0.00 0.00 88 1017.3
20260506044058 56 293 0.0 0.0 0.00 0.00 0.00 88 1017.3
20260506043558 56 293 0.0 0.0 0.00 0.00 0.00 87 1017.2
20260506042558 57 293 0.0 0.0 0.00 0.00 0.00 86 1017.2
20260506042058 57 293 0.0 0.0 0.00 0.00 0.00 85 1017.1
20260506041558 57 293 0.0 0.0 0.00 0.00 0.00 85 1017.1
20260506041057 58 293 0.0 0.0 0.00 0.00 0.00 84 1017.1
20260506040558 58 293 0.0 0.0 0.00 0.00 0.00 83 1017.0
20260506040057 58 293 0.0 0.0 0.00 0.00 0.00 83 1017.0
20260506035558 58 293 0.0 1.0 0.00 0.00 0.00 82 1017.0
20260506035057 59 293 0.0 3.0 0.00 0.00 0.00 82 1016.9
20260506034600 59 293 1.0 3.0 0.00 0.00 0.00 81 1016.7
20260506034057 59 293 1.0 3.0 0.00 0.00 0.00 81 1016.7
20260506033556 59 293 2.0 5.0 0.00 0.00 0.00 80 1016.6
20260506033157 60 293 2.0 5.0 0.00 0.00 0.00 79 1016.6
20260506032556 60 292 2.0 5.0 0.00 0.00 0.00 79 1016.5
20260506032056 61 292 2.0 8.0 0.00 0.00 0.00 78 1016.4
20260506031558 61 293 4.0 8.0 0.00 0.00 0.00 77 1016.4
20260506031058 62 291 0.0 2.0 0.00 0.00 0.00 77 1016.4
20260506030555 62 291 0.0 2.0 0.00 0.00 0.00 76 1016.4
20260506030055 62 291 0.0 3.0 0.00 0.00 0.00 76 1016.3
20260506025555 62 291 0.0 2.0 0.00 0.00 0.00 76 1016.3
20260506025055 62 291 1.0 3.0 0.00 0.00 0.00 75 1016.3
20260506024555 62 291 1.0 3.0 0.00 0.00 0.00 75 1016.3
20260506024058 63 291 0.0 3.0 0.00 0.00 0.00 74 1016.3
20260506023555 63 291 0.0 4.0 0.00 0.00 0.00 73 1016.3
20260506022554 64 225 1.0 4.0 0.00 0.00 0.00 68 1016.1
20260506022054 65 298 1.0 3.0 0.00 0.00 0.00 68 1016.0
20260506021558 65 299 0.0 3.0 0.00 0.00 0.00 69 1016.1
20260506021056 65 315 1.0 3.0 0.00 0.00 0.00 69 1016.1
20260506020557 65 286 1.0 4.0 0.00 0.00 0.00 67 1016.1
20260506020054 65 285 1.0 4.0 0.00 0.00 0.00 67 1016.0
20260506015554 66 309 1.0 3.0 0.00 0.00 0.00 67 1016.0
20260506015057 67 317 0.0 2.0 0.00 0.00 0.00 66 1016.0
20260506014553 66 337 0.0 4.0 0.00 0.00 0.00 72 1016.1
20260506014054 64 265 0.0 4.0 0.00 0.00 0.00 72 1016.0
20260506013551 64 292 0.0 4.0 0.00 0.00 0.00 72 1016.0
20260506012554 63 102 0.0 1.0 0.00 0.00 0.00 71 1016.2
20260506012058 64 203 0.0 1.0 0.00 0.00 0.00 72 1016.1
20260506011554 64 207 0.0 3.0 0.00 0.00 0.00 72 1016.0
20260506011052 64 206 0.0 3.0 0.00 0.00 0.00 72 1016.1
20260506010554 64 211 0.0 2.0 0.00 0.00 0.00 71 1016.2
20260506010056 64 222 0.0 1.0 0.00 0.00 0.00 71 1016.2
20260506005552 63 186 0.0 4.0 0.00 0.00 0.00 73 1016.3
20260506005052 63 206 0.0 4.0 0.00 0.00 0.00 72 1016.2
20260506004551 63 186 0.0 3.0 0.00 0.00 0.00 71 1016.3
20260506004053 63 213 0.0 3.0 0.00 0.00 0.00 72 1016.3
20260506003554 63 163 1.0 3.0 0.00 0.00 0.00 72 1016.2
20260506003151 63 265 2.0 6.0 0.00 0.00 0.00 74 1016.3
20260506002551 63 268 2.0 4.0 0.00 0.00 0.00 74 1016.3
20260506002051 63 271 2.0 5.0 0.00 0.00 0.00 74 1016.3
20260506001604 64 296 2.0 6.0 0.00 0.00 0.00 71 1016.4
20260506001051 64 323 4.0 10.0 0.00 0.00 0.00 71 1016.4
20260506000551 65 297 4.0 10.0 0.00 0.00 0.00 71 1016.4
20260506000049 64 316 4.0 8.0 0.00 0.00 0.00 72 1016.4
20260505235549 64 288 1.0 4.0 0.00 0.00 0.00 73 1016.5
20260505235049 63 279 2.0 6.0 0.00 0.00 0.00 72 1016.5
20260505234607 64 270 1.0 6.0 0.00 0.00 0.00 70 1016.6
20260505234049 63 267 2.0 6.0 0.00 0.00 0.00 73 1016.5
20260505233550 63 265 1.0 6.0 0.00 0.00 0.00 72 1016.6
20260505233150 64 297 3.0 8.0 0.00 0.00 0.00 71 1016.6
20260505232548 64 297 4.0 8.0 0.00 0.00 0.00 72 1016.6
20260505232050 64 293 4.0 7.0 0.00 0.00 0.00 72 1016.6
20260505231547 63 252 1.0 7.0 0.00 0.00 0.00 76 1016.7
20260505231049 62 249 3.0 7.0 0.00 0.00 0.00 74 1016.7
20260505230545 63 292 3.0 5.0 0.00 0.00 0.00 74 1016.8
20260505230048 63 286 2.0 4.0 0.00 0.00 0.00 73 1016.7
20260505225544 61 283 2.0 7.0 0.00 0.00 0.00 74 1016.8
20260505225042 62 280 4.0 7.0 0.00 0.00 0.00 75 1017.0
20260505224541 60 251 0.0 4.0 0.00 0.00 0.00 76 1017.0
20260505224042 60 252 1.0 4.0 0.00 0.00 0.00 78 1017.1
20260505223542 60 249 0.0 3.0 0.00 0.00 0.00 77 1017.1
20260505222537 60 249 1.0 7.0 0.00 0.00 0.00 77 1017.2
20260505222037 60 329 1.0 6.0 0.00 0.00 0.00 77 1017.3
20260505221537 59 349 3.0 6.0 0.00 0.00 0.00 78 1017.2
20260505221035 59 278 1.0 4.0 0.00 0.00 0.00 79 1017.2
20260505220535 59 278 0.0 7.0 0.00 0.00 0.00 78 1017.3
20260505220035 59 238 2.0 7.0 0.00 0.00 0.00 78 1017.3
20260505215534 59 211 1.0 3.0 0.00 0.00 0.00 80 1017.4
20260505215033 59 209 2.0 4.0 0.00 0.00 0.00 79 1017.5
20260505214544 58 209 1.0 4.0 0.00 0.00 0.00 80 1017.5
20260505214035 59 210 0.0 4.0 0.00 0.00 0.00 80 1017.5
20260505213531 58 209 1.0 5.0 0.00 0.00 0.00 80 1017.5
20260505212530 58 204 3.0 6.0 0.00 0.00 0.00 81 1017.5
20260505212034 58 198 1.0 4.0 0.00 0.00 0.00 81 1017.6
20260505211540 58 198 1.0 3.0 0.00 0.00 0.00 80 1017.6
20260505211030 58 197 0.0 3.0 0.00 0.00 0.00 80 1017.5
20260505210532 58 197 0.0 4.0 0.00 0.00 0.00 80 1017.6
20260505210027 58 197 0.0 5.0 0.00 0.00 0.00 81 1017.6
20260505205528 57 196 2.0 5.0 0.00 0.00 0.00 82 1017.6
20260505205026 58 196 1.0 4.0 0.00 0.00 0.00 81 1017.6
20260505204526 58 196 1.0 6.0 0.00 0.00 0.00 81 1017.6
20260505204025 57 196 2.0 6.0 0.00 0.00 0.00 81 1017.7
20260505203524 58 193 1.0 5.0 0.00 0.00 0.00 83 1017.6
20260505202523 57 192 2.0 5.0 0.00 0.00 0.00 83 1017.5
20260505202023 57 192 1.0 7.0 0.00 0.00 0.00 84 1017.5
20260505201523 56 193 2.0 7.0 0.00 0.00 0.00 83 1017.5
20260505201022 57 225 2.0 5.0 0.00 0.00 0.00 83 1017.6
20260505200523 57 225 2.0 5.0 0.00 0.00 0.00 83 1017.5
20260505200022 56 215 1.0 4.0 0.00 0.00 0.00 83 1017.6
20260505195521 56 213 0.0 4.0 0.00 0.00 0.00 84 1017.5
20260505195025 56 213 1.0 4.0 0.00 0.00 0.00 83 1017.5
20260505194520 57 214 1.0 4.0 0.00 0.00 0.00 83 1017.6
20260505194021 56 214 1.0 4.0 0.00 0.00 0.00 84 1017.6
20260505193519 56 215 2.0 5.0 0.00 0.00 0.00 84 1017.5
20260505192521 56 222 3.0 6.0 0.00 0.00 0.00 85 1017.5
20260505192018 56 225 0.0 5.0 0.00 0.00 0.00 85 1017.6
20260505191517 55 225 2.0 5.0 0.00 0.00 0.00 85 1017.5
20260505191017 55 224 2.0 5.0 0.00 0.00 0.00 86 1017.7
20260505190515 55 224 2.0 6.0 0.00 0.00 0.00 86 1017.6
20260505190015 55 224 1.0 6.0 0.00 0.00 0.00 86 1017.5
20260505185513 55 226 0.0 4.0 0.00 0.00 0.00 87 1017.5
20260505185013 55 226 2.0 4.0 0.00 0.00 0.00 87 1017.5
20260505184523 55 226 1.0 5.0 0.00 0.00 0.00 87 1017.5
20260505184014 55 226 1.0 5.0 0.00 0.00 0.00 87 1017.5
20260505183512 55 226 2.0 4.0 0.00 0.00 0.00 86 1017.4
20260505183112 55 226 0.0 4.0 0.00 0.00 0.00 85 1017.4
20260505182511 55 226 0.0 5.0 0.00 0.00 0.00 85 1017.4
20260505182010 55 226 2.0 5.0 0.00 0.00 0.00 85 1017.4
20260505181510 55 221 1.0 5.0 0.00 0.00 0.00 85 1017.4
20260505181009 55 219 1.0 5.0 0.00 0.00 0.00 85 1017.2
20260505180509 55 215 2.0 4.0 0.00 0.00 0.00 86 1017.2
20260505180007 55 214 1.0 4.0 0.00 0.00 0.00 86 1017.2
20260505175506 55 214 2.0 4.0 0.00 0.00 0.00 87 1017.2
20260505175006 55 214 0.0 3.0 0.00 0.00 0.00 86 1017.2
20260505174505 54 214 0.0 4.0 0.00 0.00 0.00 87 1017.2
20260505174005 54 214 2.0 4.0 0.00 0.00 0.00 86 1017.2
20260505173504 54 214 0.0 6.0 0.00 0.00 0.00 87 1017.1
20260505172505 54 214 0.0 5.0 0.00 0.00 0.00 87 1017.1
20260505172003 54 214 2.0 5.0 0.00 0.00 0.00 87 1017.1
20260505171503 54 214 0.0 5.0 0.00 0.00 0.00 87 1017.1
20260505171101 54 214 2.0 5.0 0.00 0.00 0.00 88 1017.1
20260505170558 54 211 1.0 6.0 0.00 0.00 0.00 89 1017.1
20260505170058 53 211 3.0 6.0 0.00 0.00 0.00 89 1017.1
20260505165557 53 217 0.0 5.0 0.00 0.00 0.00 89 1017.0
20260505165056 53 217 2.0 5.0 0.00 0.00 0.00 89 1016.9
20260505164556 53 219 2.0 4.0 0.00 0.00 0.00 89 1016.9
20260505164057 53 219 2.0 5.0 0.00 0.00 0.00 89 1016.9
20260505163554 53 219 2.0 5.0 0.00 0.00 0.00 89 1016.8
20260505163051 53 218 1.0 4.0 0.00 0.00 0.00 89 1016.8
20260505162551 54 218 1.0 4.0 0.00 0.00 0.00 89 1016.8
20260505162050 54 217 1.0 3.0 0.00 0.00 0.00 89 1016.8
20260505161549 53 217 1.0 3.0 0.00 0.00 0.00 90 1016.8
20260505161048 53 217 0.0 3.0 0.00 0.00 0.00 90 1016.7
20260505160550 53 217 0.0 1.0 0.00 0.00 0.00 90 1016.8
20260505153143 53 217 0.0 4.0 0.00 0.00 0.00 90 1016.7
20260505152543 53 217 0.0 4.0 0.00 0.00 0.00 90 1016.8
20260505152042 53 218 0.0 4.0 0.00 0.00 0.00 90 1016.7
20260505151545 53 218 0.0 4.0 0.00 0.00 0.00 91 1016.8
20260505151040 53 218 0.0 4.0 0.00 0.00 0.00 90 1016.8
20260505150540 53 219 0.0 3.0 0.00 0.00 0.00 91 1016.6
20260505140532 53 216 4.0 9.0 0.00 0.00 0.00 91 1015.9
20260505125019 52 198 2.0 4.0 0.00 0.00 0.00 94 1015.4
20260505124518 52 198 1.0 4.0 0.00 0.00 0.00 94 1015.4
20260505124018 52 198 1.0 4.0 0.00 0.00 0.00 94 1015.4
20260505123520 52 199 0.0 3.0 0.00 0.00 0.00 94 1015.4
20260505123017 52 199 0.0 3.0 0.00 0.00 0.00 93 1015.4
20260505122517 52 199 0.0 3.0 0.00 0.00 0.00 93 1015.4
20260505122016 52 199 1.0 3.0 0.00 0.00 0.00 93 1015.3
20260505121516 52 198 2.0 4.0 0.00 0.00 0.00 93 1015.3
20260505121016 52 198 0.0 4.0 0.00 0.00 0.00 93 1015.3
20260505120515 52 199 2.0 4.0 0.00 0.00 0.00 93 1015.2
20260505120017 52 199 1.0 5.0 0.00 0.00 0.00 93 1015.2
20260505115514 52 199 2.0 5.0 0.00 0.00 0.00 92 1015.1
20260505115015 52 199 2.0 5.0 0.00 0.00 0.00 92 1015.2
20260505114513 52 200 1.0 4.0 0.00 0.00 0.00 92 1015.1
20260505114014 52 200 2.0 4.0 0.00 0.00 0.00 92 1015.1
20260505113512 52 200 1.0 5.0 0.00 0.00 0.00 92 1015.1
20260505113113 52 200 2.0 5.0 0.00 0.00 0.00 92 1015.2
20260505112516 52 200 2.0 4.0 0.00 0.00 0.00 92 1015.1
20260505112015 52 200 2.0 4.0 0.00 0.00 0.00 92 1015.1
20260505111532 52 201 2.0 4.0 0.00 0.00 0.00 92 1015.1
20260505111014 52 201 0.0 4.0 0.00 0.00 0.00 92 1015.0
20260505110514 52 201 1.0 4.0 0.00 0.00 0.00 92 1015.0
20260505102007 52 211 2.0 4.0 0.00 0.00 0.00 92 1014.6
20260505101511 52 225 2.0 4.0 0.00 0.00 0.00 92 1014.6
20260505101006 52 225 1.0 4.0 0.00 0.00 0.00 92 1014.6
20260505100505 52 226 1.0 5.0 0.00 0.00 0.00 92 1014.5
20260505100005 52 226 2.0 6.0 0.00 0.00 0.00 92 1014.5
20260505095505 52 227 3.0 6.0 0.00 0.00 0.00 92 1014.5
20260505095004 52 236 1.0 5.0 0.00 0.00 0.00 92 1014.3
20260505094504 52 242 2.0 5.0 0.00 0.00 0.00 93 1014.4
20260505094002 52 250 1.0 3.0 0.00 0.00 0.00 93 1014.3
20260505093501 52 250 1.0 3.0 0.00 0.00 0.00 93 1014.3
20260505093100 52 250 0.0 2.0 0.00 0.00 0.00 93 1014.2
20260505092502 51 250 0.0 1.0 0.00 0.00 0.00 93 1014.1
20260505092101 51 250 0.0 0.0 0.00 0.00 0.00 92 1014.2
20260505091616 51 250 0.0 0.0 0.00 0.00 0.00 92 1014.1
20260505091059 52 250 0.0 0.0 0.00 0.00 0.00 92 1014.1
20260505090559 52 250 0.0 0.0 0.00 0.00 0.00 92 1014.1
20260505085600 52 250 0.0 0.0 0.00 0.00 0.00 91 1014.1
20260505085057 52 250 0.0 0.0 0.00 0.00 0.00 91 1014.1
20260505084606 52 250 0.0 0.0 0.00 0.00 0.00 91 1014.1
20260505084056 52 250 0.0 0.0 0.00 0.00 0.00 91 1014.1
20260505083558 52 250 0.0 0.0 0.00 0.00 0.00 91 1014.0
20260505083106 52 250 0.0 0.0 0.00 0.00 0.00 91 1014.0